Meteo orario Abomey

Oggi, 26 Febbraio, Venerdi

Tempo Temperatura Precipitazioni Vento Pressione Umidità
00:00 +30°C° 0 mm 2 m/s 738 mm Hg 67%
01:00 +29°C° 0.2 mm 2 m/s 738 mm Hg 70%
02:00 +29°C° 0.2 mm 2 m/s 738 mm Hg 73%
03:00 +28°C° 0.2 mm 2 m/s 737 mm Hg 75%
04:00 +28°C° 0.1 mm 2 m/s 737 mm Hg 76%
05:00 +28°C° 0.1 mm 2 m/s 738 mm Hg 76%
06:00 +27°C° 0.1 mm 2 m/s 738 mm Hg 77%
07:00 +29°C° 0 mm 2 m/s 738 mm Hg 70%
08:00 +30°C° 0 mm 2 m/s 738 mm Hg 63%
09:00 +32°C° 0 mm 2 m/s 739 mm Hg 56%
10:00 +35°C° 0 mm 2 m/s 738 mm Hg 47%
11:00 +37°C° 0 mm 1 m/s 738 mm Hg 39%
12:00 +40°C° 0 mm 1 m/s 737 mm Hg 30%
13:00 +40°C° 0 mm 1 m/s 737 mm Hg 29%
14:00 +39°C° 0 mm 1 m/s 736 mm Hg 29%
15:00 +39°C° 0 mm 1 m/s 735 mm Hg 29%
16:00 +37°C° 0 mm 2 m/s 735 mm Hg 36%
17:00 +36°C° 0 mm 3 m/s 735 mm Hg 43%
18:00 +34°C° 0 mm 4 m/s 736 mm Hg 50%
19:00 +33°C° 0 mm 4 m/s 736 mm Hg 58%
20:00 +30°C° 0 mm 4 m/s 737 mm Hg 65%
21:00 +29°C° 0 mm 4 m/s 737 mm Hg 72%
22:00 +29°C° 0 mm 4 m/s 737 mm Hg 74%
23:00 +28°C° 0 mm 4 m/s 737 mm Hg 76%

Domani, 27 Febbraio, Sabato

Tempo Temperatura Precipitazioni Vento Pressione Umidità
00:00 +28°C° 0 mm 4 m/s 737 mm Hg 79%
01:00 +28°C° 0 mm 3 m/s 737 mm Hg 79%
02:00 +27°C° 0 mm 3 m/s 736 mm Hg 80%
03:00 +27°C° 0 mm 2 m/s 736 mm Hg 81%
04:00 +27°C° 0 mm 2 m/s 736 mm Hg 82%
05:00 +27°C° 0 mm 2 m/s 737 mm Hg 84%
06:00 +27°C° 0 mm 2 m/s 737 mm Hg 85%
07:00 +28°C° 0 mm 2 m/s 738 mm Hg 77%
08:00 +30°C° 0 mm 2 m/s 738 mm Hg 68%
09:00 +31°C° 0 mm 3 m/s 739 mm Hg 60%
10:00 +35°C° 0 mm 2 m/s 738 mm Hg 52%
11:00 +37°C° 0 mm 2 m/s 738 mm Hg 44%
12:00 +39°C° 0 mm 1 m/s 738 mm Hg 36%
13:00 +38°C° 0 mm 2 m/s 737 mm Hg 38%
14:00 +38°C° 0 mm 2 m/s 736 mm Hg 39%
15:00 +37°C° 0 mm 3 m/s 735 mm Hg 40%
16:00 +36°C° 0.1 mm 3 m/s 735 mm Hg 46%
17:00 +34°C° 0.1 mm 4 m/s 735 mm Hg 51%
18:00 +33°C° 0.1 mm 4 m/s 735 mm Hg 56%
19:00 +32°C° 0.1 mm 4 m/s 736 mm Hg 62%
20:00 +30°C° 0.1 mm 4 m/s 736 mm Hg 67%
21:00 +29°C° 0.1 mm 4 m/s 737 mm Hg 72%
22:00 +28°C° 0 mm 4 m/s 737 mm Hg 74%
23:00 +28°C° 0 mm 3 m/s 737 mm Hg 76%

Dopodomani, 28 Febbraio, Domenica

Tempo Temperatura Precipitazioni Vento Pressione Umidità
00:00 +28°C° 0 mm 3 m/s 737 mm Hg 78%
01:00 +27°C° 0 mm 3 m/s 736 mm Hg 79%
02:00 +27°C° 0 mm 2 m/s 736 mm Hg 80%
03:00 +27°C° 0 mm 2 m/s 735 mm Hg 82%
04:00 +26°C° 0 mm 2 m/s 735 mm Hg 83%
05:00 +26°C° 0 mm 2 m/s 736 mm Hg 85%
06:00 +26°C° 0 mm 2 m/s 736 mm Hg 86%
07:00 +28°C° 0 mm 2 m/s 736 mm Hg 78%
08:00 +29°C° 0 mm 2 m/s 737 mm Hg 69%
09:00 +31°C° 0 mm 3 m/s 737 mm Hg 61%
10:00 +34°C° 0 mm 2 m/s 737 mm Hg 53%
11:00 +36°C° 0 mm 2 m/s 737 mm Hg 46%
12:00 +39°C° 0 mm 1 m/s 736 mm Hg 38%
13:00 +38°C° 0.2 mm 2 m/s 736 mm Hg 40%
14:00 +37°C° 0.2 mm 3 m/s 735 mm Hg 42%
15:00 +36°C° 0.2 mm 4 m/s 734 mm Hg 45%
16:00 +35°C° 0.1 mm 4 m/s 735 mm Hg 48%
17:00 +35°C° 0.1 mm 4 m/s 735 mm Hg 51%
18:00 +34°C° 0.1 mm 4 m/s 735 mm Hg 54%
19:00 +32°C° 0.2 mm 4 m/s 736 mm Hg 61%
20:00 +30°C° 0.2 mm 3 m/s 736 mm Hg 67%
21:00 +28°C° 0.2 mm 3 m/s 737 mm Hg 73%
22:00 +28°C° 0.1 mm 3 m/s 737 mm Hg 75%
23:00 +28°C° 0.1 mm 3 m/s 737 mm Hg 77%

1 Marzo, Lunedi

Tempo Temperatura Precipitazioni Vento Pressione Umidità
00:00 +28°C° 0.1 mm 3 m/s 737 mm Hg 80%
01:00 +27°C° 0 mm 3 m/s 736 mm Hg 80%
02:00 +27°C° 0 mm 3 m/s 736 mm Hg 81%
03:00 +27°C° 0 mm 3 m/s 735 mm Hg 81%
04:00 +27°C° 0 mm 3 m/s 735 mm Hg 81%
05:00 +27°C° 0 mm 2 m/s 736 mm Hg 81%
06:00 +27°C° 0 mm 2 m/s 736 mm Hg 81%
07:00 +28°C° 0 mm 2 m/s 736 mm Hg 75%
08:00 +30°C° 0 mm 2 m/s 737 mm Hg 68%
09:00 +31°C° 0 mm 3 m/s 738 mm Hg 62%
10:00 +35°C° 0 mm 2 m/s 737 mm Hg 53%
11:00 +37°C° 0 mm 2 m/s 737 mm Hg 45%
12:00 +39°C° 0 mm 1 m/s 737 mm Hg 37%
13:00 +38°C° 0.1 mm 2 m/s 736 mm Hg 40%
14:00 +37°C° 0.1 mm 3 m/s 735 mm Hg 43%
15:00 +36°C° 0.1 mm 4 m/s 735 mm Hg 46%
16:00 +35°C° 0 mm 4 m/s 735 mm Hg 50%
17:00 +34°C° 0 mm 4 m/s 735 mm Hg 54%
18:00 +33°C° 0 mm 4 m/s 735 mm Hg 58%
19:00 +32°C° 0 mm 4 m/s 736 mm Hg 63%
20:00 +30°C° 0 mm 4 m/s 736 mm Hg 67%
21:00 +29°C° 0 mm 4 m/s 736 mm Hg 72%
22:00 +29°C° 0 mm 4 m/s 736 mm Hg 73%
23:00 +28°C° 0 mm 3 m/s 736 mm Hg 75%

2 Marzo, Martedi

Tempo Temperatura Precipitazioni Vento Pressione Umidità
00:00 +28°C° 0 mm 3 m/s 736 mm Hg 76%
01:00 +28°C° 0 mm 3 m/s 736 mm Hg 77%
02:00 +27°C° 0 mm 3 m/s 736 mm Hg 79%
03:00 +27°C° 0 mm 3 m/s 735 mm Hg 80%
04:00 +27°C° 0 mm 2 m/s 735 mm Hg 82%
05:00 +27°C° 0 mm 2 m/s 736 mm Hg 83%
06:00 +26°C° 0 mm 1 m/s 736 mm Hg 85%
07:00 +28°C° 0 mm 2 m/s 737 mm Hg 77%
08:00 +30°C° 0 mm 2 m/s 737 mm Hg 69%
09:00 +31°C° 0 mm 2 m/s 738 mm Hg 61%
10:00 +35°C° 0 mm 2 m/s 738 mm Hg 53%
11:00 +36°C° 0 mm 1 m/s 738 mm Hg 45%
12:00 +40°C° 0 mm 1 m/s 737 mm Hg 36%
13:00 +39°C° 0 mm 2 m/s 737 mm Hg 36%
14:00 +39°C° 0 mm 3 m/s 736 mm Hg 35%
15:00 +40°C° 0 mm 4 m/s 735 mm Hg 35%
16:00 +37°C° 0 mm 4 m/s 735 mm Hg 42%
17:00 +36°C° 0 mm 4 m/s 735 mm Hg 48%
18:00 +34°C° 0 mm 5 m/s 735 mm Hg 55%
19:00 +33°C° 0.1 mm 5 m/s 736 mm Hg 61%
20:00 +30°C° 0.1 mm 4 m/s 736 mm Hg 67%
21:00 +29°C° 0.1 mm 4 m/s 737 mm Hg 73%
22:00 +29°C° 0 mm 4 m/s 737 mm Hg 75%
23:00 +28°C° 0 mm 3 m/s 737 mm Hg 76%

3 Marzo, Mercoledi

Tempo Temperatura Precipitazioni Vento Pressione Umidità
00:00 +28°C° 0 mm 3 m/s 736 mm Hg 78%
01:00 +28°C° 0 mm 3 m/s 736 mm Hg 80%
02:00 +27°C° 0 mm 3 m/s 736 mm Hg 81%
03:00 +27°C° 0 mm 2 m/s 735 mm Hg 83%
04:00 +27°C° 0 mm 2 m/s 736 mm Hg 85%
05:00 +26°C° 0 mm 1 m/s 736 mm Hg 87%
06:00 +24°C° 0 mm 0 m/s 736 mm Hg 88%
07:00 +28°C° 0 mm 1 m/s 737 mm Hg 80%
08:00 +29°C° 0 mm 1 m/s 738 mm Hg 72%
09:00 +31°C° 0 mm 2 m/s 739 mm Hg 64%
10:00 +32°C° 0 mm 2 m/s 738 mm Hg 59%
11:00 +34°C° 0 mm 2 m/s 738 mm Hg 54%
12:00 +35°C° 0 mm 1 m/s 738 mm Hg 48%
13:00 +36°C° 0 mm 2 m/s 737 mm Hg 45%
14:00 +37°C° 0 mm 2 m/s 736 mm Hg 43%
15:00 +37°C° 0 mm 3 m/s 735 mm Hg 40%
16:00 +36°C° 0 mm 3 m/s 736 mm Hg 43%
17:00 +35°C° 0 mm 3 m/s 736 mm Hg 46%
18:00 +34°C° 0 mm 3 m/s 736 mm Hg 49%
19:00 +33°C° 0 mm 3 m/s 736 mm Hg 55%
20:00 +32°C° 0 mm 4 m/s 736 mm Hg 61%
21:00 +30°C° 0 mm 4 m/s 736 mm Hg 66%
22:00 +29°C° 0 mm 4 m/s 736 mm Hg 69%
23:00 +28°C° 0 mm 3 m/s 736 mm Hg 72%
Mostrare altro

Abbiamo bisogno del tuo consenso

Meteoprog e i nostri fornitori di servizi possono memorizzare e accedere a dati personali come cookie, identificatori di dispositivi o altre tecnologie simili sul tuo dispositivo e possono elaborare tali dati per personalizzare i contenuti e gli annunci, nonché fornire funzionalità dei social media e analizzarne il traffico.

  • Archiviare e/o accedere alle informazioni sul tuo dispositivo

    Cookie, identificatori di dispositivi o altre informazioni possono essere memorizzati o resi accessibili sul tuo dispositivo per le finalità sopra indicate.

  • Annunci e contenuti personalizzati, misurazione di annunci e contenuti, approfondimenti sul pubblico e sviluppo di prodotti

    Gli annunci e i contenuti possono essere personalizzati in base a un profilo. È possibile aggiungere più dati per personalizzare meglio annunci e contenuti. È possibile misurare il rendimento degli annunci e dei contenuti. È possibile ricavare informazioni sul pubblico che ha visto gli annunci e i contenuti. Tali dati possono essere utilizzati per sviluppare o migliorare l'esperienza, i sistemi e il software dell'utente.

Cliccando su “Accetto”, acconsenti all'uso di cookie, identificatori di dispositivo, web beacon o altre tecnologie simili. Puoi modificare le impostazioni nel browser del tuo dispositivo.

Per determinati scopi, è possibile fare affidamento su interessi legali, piuttosto che sul consenso. Puoi approfondire questo argomento consultando la nostra Informativa sulla privacy e sui cookie.